Weather History for Parsons, KS

Change the Weather History Date:

Saturday, February 2, 2013

  Actual Average Record
Temperature  
Mean Temperature 39 °F -  
Max Temperature 57 °F 43 °F 69 °F (2003)
Min Temperature 21 °F 23 °F -8 °F (2011)
Degree Days  
Heating Degree Days 26    
Moisture  
Dew Point 25 °F    
Average Humidity 59    
Maximum Humidity 84    
Minimum Humidity 34    
Precipitation  
Precipitation 0.00 in - - ()
Sea Level Pressure  
Sea Level Pressure 30.22 in    
Wind  
Wind Speed 3 mph (West)    
Max Wind Speed 14 mph    
Max Gust Speed 20 mph    
Visibility 10 miles    
Events      
Averages and records for this station are not official NWS values.
T = Trace of Precipitation, MM = Missing Value Source: NWS Daily Summary

Daily Weather History Graph

Daily Weather History Graph

Search for Another Location

Airport:

Trip Planner

Search our weather history database for the weather conditions in past years. The results will help you decide how hot, cold, wet, or windy it might be!

Date:

Astronomy

Feb. 02, 2013 Rise Set
Actual Time 7:24 AM CST 5:47 PM CST
Civil Twilight 6:56 AM CST 6:15 PM CST
Nautical Twilight 6:25 AM CST 6:46 PM CST
Astronomical Twilight 5:54 AM CST 7:17 PM CST
Moon No Moon Rise 10:45 AM CST (2/2)
Length of Visible Light 11h 18m
Length of Day
10h 23m
Waning Gibbous, 59% of the Moon is Illuminated
Feb 2
Waning Gibbous
Feb 3
Last Quarter
Feb 10
New
Feb 17
First Quarter
Feb 25
Full

Hourly Weather History & Observations

Time (CST) Temp. Windchill Dew Point Humidity Pressure Visibility Wind Dir Wind Speed Gust Speed Precip Events Conditions
12:52 AM 24.1 °F - 17.1 °F 75% 30.22 in 10.0 mi Calm Calm - N/A   Clear
2:52 AM 21.9 °F - 17.1 °F 82% 30.20 in 10.0 mi Calm Calm - N/A   Scattered Clouds
3:52 AM 24.1 °F - 19.9 °F 84% 30.19 in 10.0 mi Calm Calm - N/A   Overcast
4:52 AM 26.1 °F - 19.9 °F 78% 30.19 in 10.0 mi Calm Calm - N/A   Overcast
5:52 AM 27.0 °F - 21.0 °F 78% 30.21 in 10.0 mi Calm Calm - N/A   Overcast
6:52 AM 27.0 °F - 21.0 °F 78% 30.21 in 10.0 mi Calm Calm - 0.00 in   Overcast
7:52 AM 24.1 °F - 19.0 °F 81% 30.24 in 10.0 mi Calm Calm - N/A   Partly Cloudy
8:52 AM 32.0 °F 28.7 °F 21.0 °F 64% 30.27 in 10.0 mi NW 3.5 mph - N/A   Clear
9:52 AM 39.0 °F - 23.0 °F 53% 30.28 in 10.0 mi North - - N/A   Clear
10:52 AM 43.0 °F - 26.1 °F 51% 30.29 in 10.0 mi North - - N/A   Clear
11:52 AM 48.0 °F - 30.0 °F 50% 30.27 in 10.0 mi Variable 3.5 mph - N/A   Clear
12:52 PM 52.0 °F - 30.9 °F 45% 30.25 in 10.0 mi West 4.6 mph - N/A   Clear
1:52 PM 54.0 °F - 30.9 °F 41% 30.22 in 10.0 mi West 6.9 mph - N/A   Clear
2:52 PM 57.0 °F - 30.0 °F 36% 30.21 in 10.0 mi West 10.4 mph 19.6 mph N/A   Clear
3:52 PM 57.0 °F - 28.9 °F 34% 30.20 in 10.0 mi WNW 12.7 mph - N/A   Clear
4:52 PM 55.9 °F - 28.0 °F 34% 30.22 in 10.0 mi NW 13.8 mph - N/A   Clear
5:52 PM 48.0 °F - 27.0 °F 44% 30.21 in 10.0 mi North - - N/A   Clear
6:52 PM 41.0 °F - 27.0 °F 57% 30.22 in 10.0 mi Calm Calm - N/A   Clear
8:52 PM 41.0 °F 38.0 °F 26.1 °F 55% 30.23 in 10.0 mi West 4.6 mph - N/A   Clear
9:52 PM 39.0 °F 34.8 °F 26.1 °F 60% 30.22 in 10.0 mi West 5.8 mph - N/A   Clear
10:52 PM 42.1 °F 37.7 °F 28.0 °F 58% 30.20 in 10.0 mi WSW 6.9 mph - N/A   Clear
11:52 PM 39.9 °F 35.1 °F 27.0 °F 60% 30.20 in 10.0 mi West 6.9 mph - N/A   Clear